Wendover, UT

10:27 AM MST on February 27, 2017 (GMT -0700)
Wendover

Weather History for KENV - June, 2013

Change the Weather History Date:

Sunday, June 30, 2013

  Actual Average Record
Temperature  
Mean Temperature 90 °F -  
Max Temperature 100 °F 86 °F 100 °F (1944)
Min Temperature 80 °F 62 °F 44 °F (1968)
Cooling Degree Days 25    
Growing Degree Days 40 (Base 50)    
Moisture  
Dew Point 39 °F    
Average Humidity 17    
Maximum Humidity 23    
Minimum Humidity 11    
Precipitation  
Precipitation 0.00 in - - ()
Sea Level Pressure  
Sea Level Pressure 30.04 in    
Wind  
Wind Speed 10 mph (NE)    
Max Wind Speed 18 mph    
Max Gust Speed 23 mph    
Visibility 10 miles    
Events      
Averages and records for this station are not official NWS values.
T = Trace of Precipitation, MM = Missing Value Source: NWS Daily Summary

Daily Weather History Graph

Daily Weather History Graph

Search for Another Location

Airport or City:

Trip Planner

Search our weather history database for the weather conditions in past years. The results will help you decide how hot, cold, wet, or windy it might be!

Date:

Astronomy

Jun. 30, 2013 Rise Set
Actual Time 6:08 AM MDT 9:11 PM MDT
Civil Twilight 5:35 AM MDT 9:44 PM MDT
Nautical Twilight 4:52 AM MDT 10:26 PM MDT
Astronomical Twilight 4:02 AM MDT 11:16 PM MDT
Moon 1:10 AM MDT (6/30) 2:28 PM MDT (6/30)
Length of Visible Light 16h 09m
Length of Day
15h 02m
Last Quarter, 45% of the Moon is Illuminated
Jun 30
Last Quarter
Jul 8
New
Jul 15
First Quarter
Jul 22
Full
Jul 29
Last Quarter

Hourly Weather History & Observations

Time (MDT) Temp. Dew Point Humidity Pressure Visibility Wind Dir Wind Speed Gust Speed Precip Events Conditions
12:15 AM 87.8 °F 37.4 °F 17% 30.04 in 10.0 mi NW 18.4 mph - N/A   Clear
12:35 AM 87.8 °F 39.2 °F 18% 30.04 in 10.0 mi NW 12.7 mph - N/A   Clear
12:55 AM 89.6 °F 39.2 °F 17% 30.03 in 10.0 mi NNW 11.5 mph - N/A   Clear
1:15 AM 87.8 °F 37.4 °F 17% 30.02 in 10.0 mi West 12.7 mph - N/A   Clear
1:35 AM 89.6 °F 37.4 °F 16% 30.02 in 10.0 mi NNE 6.9 mph - N/A   Clear
1:55 AM 87.8 °F 37.4 °F 17% 30.01 in 10.0 mi ENE 11.5 mph - N/A   Clear
2:15 AM 87.8 °F 39.2 °F 18% 30.00 in 10.0 mi ENE 16.1 mph 19.6 mph N/A   Clear
2:35 AM 86.0 °F 39.2 °F 19% 30.01 in 10.0 mi NE 11.5 mph 17.3 mph N/A   Clear
2:55 AM 87.8 °F 37.4 °F 17% 30.03 in 10.0 mi NNE 10.4 mph - N/A   Clear
3:15 AM 86.0 °F 37.4 °F 18% 30.05 in 10.0 mi North 5.8 mph - N/A   Clear
3:35 AM 84.2 °F 39.2 °F 20% 30.05 in 10.0 mi North 11.5 mph 23.0 mph N/A   Clear
3:55 AM 84.2 °F 39.2 °F 20% 30.05 in 10.0 mi North 10.4 mph 18.4 mph N/A   Clear
4:15 AM 84.2 °F 41.0 °F 22% 30.06 in 10.0 mi North 11.5 mph - N/A   Clear
4:35 AM 84.2 °F 39.2 °F 20% 30.06 in 10.0 mi NNW 8.1 mph - N/A   Clear
4:55 AM 82.4 °F 39.2 °F 21% 30.06 in 10.0 mi North 8.1 mph - N/A   Clear
5:15 AM 82.4 °F 39.2 °F 21% 30.07 in 10.0 mi SW 3.5 mph - N/A   Clear
5:35 AM 80.6 °F 39.2 °F 23% 30.07 in 10.0 mi North 3.5 mph - N/A   Clear
5:55 AM 82.4 °F 39.2 °F 21% 30.07 in 10.0 mi WSW 5.8 mph - N/A   Clear
6:15 AM 82.4 °F 39.2 °F 21% 30.08 in 10.0 mi NNW 8.1 mph - N/A   Clear
6:35 AM 82.4 °F 39.2 °F 21% 30.08 in 10.0 mi North 9.2 mph 17.3 mph N/A   Clear
6:55 AM 82.4 °F 39.2 °F 21% 30.08 in 10.0 mi WNW 4.6 mph - N/A   Clear
7:15 AM 80.6 °F 39.2 °F 23% 30.08 in 10.0 mi South 3.5 mph - N/A   Clear
7:35 AM 82.4 °F 39.2 °F 21% 30.08 in 10.0 mi South 8.1 mph - N/A   Clear
7:55 AM 82.4 °F 39.2 °F 21% 30.09 in 10.0 mi NE 3.5 mph - N/A   Clear
8:15 AM 84.2 °F 42.8 °F 23% 30.10 in 10.0 mi NE 15.0 mph - N/A   Clear
8:35 AM 84.2 °F 42.8 °F 23% 30.10 in 10.0 mi NNE 12.7 mph - N/A   Clear
8:55 AM 86.0 °F 42.8 °F 22% 30.11 in 10.0 mi North 10.4 mph - N/A   Clear
9:15 AM 87.8 °F 42.8 °F 21% 30.11 in 10.0 mi North 10.4 mph - N/A   Clear
9:35 AM 87.8 °F 42.8 °F 21% 30.11 in 10.0 mi NNE 10.4 mph - N/A   Clear
9:55 AM 89.6 °F 42.8 °F 20% 30.11 in 10.0 mi NE 11.5 mph - N/A   Clear
10:15 AM 89.6 °F 42.8 °F 20% 30.10 in 10.0 mi NNE 10.4 mph - N/A   Clear
10:35 AM 91.4 °F 42.8 °F 18% 30.10 in 10.0 mi NNE 9.2 mph - N/A   Clear
10:55 AM 91.4 °F 42.8 °F 18% 30.09 in 10.0 mi NE 10.4 mph - N/A   Clear
11:15 AM 91.4 °F 42.8 °F 18% 30.09 in 10.0 mi NE 10.4 mph - N/A   Clear
11:35 AM 93.2 °F 42.8 °F 17% 30.09 in 10.0 mi NE 9.2 mph - N/A   Clear
11:55 AM 95.0 °F 42.8 °F 16% 30.09 in 10.0 mi East 9.2 mph - N/A   Clear
12:15 PM 96.8 °F 42.8 °F 16% 30.08 in 10.0 mi East 9.2 mph - N/A   Clear
12:35 PM 95.0 °F 42.8 °F 16% 30.08 in 10.0 mi NE 4.6 mph - N/A   Clear
12:55 PM 96.8 °F 42.8 °F 16% 30.08 in 10.0 mi East 5.8 mph - N/A   Clear
1:15 PM 98.6 °F 42.8 °F 15% 30.07 in 10.0 mi East 9.2 mph - N/A   Clear
1:35 PM 98.6 °F 42.8 °F 15% 30.06 in 10.0 mi East 6.9 mph - N/A   Clear
1:55 PM 98.6 °F 42.8 °F 15% 30.06 in 10.0 mi East 12.7 mph - N/A   Clear
2:15 PM 100.4 °F 41.0 °F 13% 30.05 in 10.0 mi East 15.0 mph 20.7 mph N/A   Clear
2:35 PM 100.4 °F 41.0 °F 13% 30.05 in 10.0 mi ESE 12.7 mph - N/A   Clear
2:55 PM 100.4 °F 41.0 °F 13% 30.04 in 10.0 mi East 12.7 mph - N/A   Clear
3:15 PM 100.4 °F 41.0 °F 13% 30.03 in 10.0 mi ENE 15.0 mph - N/A   Clear
3:35 PM 100.4 °F 41.0 °F 13% 30.02 in 10.0 mi ENE 15.0 mph 19.6 mph N/A   Clear
3:55 PM 100.4 °F 39.2 °F 12% 30.02 in 10.0 mi ENE 12.7 mph 19.6 mph N/A   Clear
4:15 PM 100.4 °F 39.2 °F 12% 30.02 in 10.0 mi ENE 10.4 mph 18.4 mph N/A   Clear
4:35 PM 100.4 °F 39.2 °F 12% 30.01 in 10.0 mi East 9.2 mph 18.4 mph N/A   Clear
4:55 PM 100.4 °F 39.2 °F 12% 30.00 in 10.0 mi East 16.1 mph 19.6 mph N/A   Clear
5:15 PM 100.4 °F 37.4 °F 11% 30.00 in 10.0 mi East 9.2 mph - N/A   Clear
5:35 PM 100.4 °F 37.4 °F 11% 29.99 in 10.0 mi East 9.2 mph - N/A   Clear
5:55 PM 100.4 °F 37.4 °F 11% 29.98 in 10.0 mi East 13.8 mph 17.3 mph N/A   Clear
6:15 PM 100.4 °F 37.4 °F 11% 29.98 in 10.0 mi ENE 10.4 mph - N/A   Clear
6:35 PM 100.4 °F 37.4 °F 11% 29.98 in 10.0 mi East 11.5 mph 19.6 mph N/A   Clear
6:55 PM 100.4 °F 35.6 °F 11% 29.98 in 10.0 mi East 12.7 mph - N/A   Clear
7:15 PM 100.4 °F 35.6 °F 11% 29.98 in 10.0 mi East 10.4 mph - N/A   Clear
7:35 PM 98.6 °F 35.6 °F 11% 29.98 in 10.0 mi East 10.4 mph - N/A   Clear
7:55 PM 98.6 °F 35.6 °F 11% 29.98 in 10.0 mi East 9.2 mph - N/A   Clear
8:15 PM 96.8 °F 35.6 °F 12% 29.99 in 10.0 mi East 8.1 mph - N/A   Clear
8:35 PM 93.2 °F 37.4 °F 14% 29.99 in 10.0 mi East 6.9 mph - N/A   Clear
8:55 PM 91.4 °F 37.4 °F 15% 29.99 in 10.0 mi East 4.6 mph - N/A   Clear
9:15 PM 91.4 °F 39.2 °F 16% 30.00 in 10.0 mi Calm Calm - N/A   Clear
9:35 PM 91.4 °F 37.4 °F 15% 30.00 in 10.0 mi Calm Calm - N/A   Clear
9:55 PM 87.8 °F 39.2 °F 18% 30.02 in 10.0 mi NNE 3.5 mph - N/A   Clear
10:15 PM 87.8 °F 35.6 °F 16% 30.02 in 10.0 mi NNE 8.1 mph - N/A   Clear
10:35 PM 87.8 °F 37.4 °F 17% 30.03 in 10.0 mi NE 8.1 mph - N/A   Clear
10:55 PM 87.8 °F 37.4 °F 17% 30.04 in 10.0 mi NNE 5.8 mph - N/A   Clear
11:15 PM 86.0 °F 37.4 °F 18% 30.04 in 10.0 mi NNE 6.9 mph - N/A   Clear
11:35 PM 86.0 °F 37.4 °F 18% 30.05 in 10.0 mi Calm Calm - N/A   Clear
11:55 PM 84.2 °F 37.4 °F 19% 30.05 in 10.0 mi Calm Calm - N/A   Clear